Hourly Data Report for November 13, 2018

VICTORIA UNIVERSITY CS
BRITISH COLUMBIA
Current Station Operator: ECCC - MSC

48°27'25.200" N
123°18'16.600" W
60.10 m
1018598
71783
WYJ

Download Data

Hourly Data (November 2018)
Hourly Data Report for November 13, 2018
TIME
LST
Temp Definition
°C
Dew Point Definition
°C
Rel Hum Definition
%
Precip. Amount Definition
mm

Wind Dir Definition
10's deg

Wind Spd Definition
km/h
Visibility Definition
km
Stn Press Definition
kPa
Hmdx Definition


Wind Chill Definition


Weather Definition


00:00 7.0 4.3 83 0.0 35 9   102.04     LegendNANA
01:00 6.6 3.7 82 0.0 34 8   102.01     LegendNANA
02:00 6.6 3.4 80 0.0 34 7   101.96     LegendNANA
03:00 7.0 3.8 80 0.0 36 8   101.97     LegendNANA
04:00 6.0 3.3 83 0.0 34 8   101.95     LegendNANA
05:00 6.5 2.5 75 0.0 1 8   101.93     LegendNANA
06:00 6.3 3.3 81 0.0 35 6   101.96     LegendNANA
07:00 5.7 3.7 87 0.0 4 4   101.94     LegendNANA
08:00 4.2 3.3 94 0.0 28 3   101.99     LegendNANA
09:00 7.3 5.1 86 0.0 34 4   102.00     LegendNANA
10:00 7.9 5.2 83 0.0 3 3   101.99     LegendNANA
11:00 8.6 5.9 83 0.0 11 3   101.97     LegendNANA
12:00 8.8 6.2 84 0.0 14 3   101.95     LegendNANA
13:00 8.9 6.0 82 0.0 16 2   101.89     LegendNANA
14:00 9.3 5.9 79 0.0 12 2   101.88     LegendNANA
15:00 8.9 5.2 78 0.0 14 2   101.87     LegendNANA
16:00 8.5 6.4 87 0.0 0 1   101.81     LegendNANA
17:00 8.1 6.4 89 0.0 3 2   101.72     LegendNANA
18:00 7.7 6.5 92 0.3 31 3   101.76     LegendNANA
19:00 7.3 6.6 95 1.7 35 1   101.72     LegendNANA
20:00 7.5 6.9 96 0.9 7 3   101.64     LegendNANA
21:00 7.9 7.4 97 0.8 12 2   101.52     LegendNANA
22:00 8.2 7.1 93 0.0   0   101.64     LegendNANA
23:00 7.9 7.3 96 1.7 36 3   101.62     LegendNANA

Notes on Data Quality.

Legend

  • E = Estimated
  • M = Missing
  • NA = Not Available*
  • [empty] = Indicates an unobserved value
Date modified: